EN

Hourly Weather Altamirano

Today, 19 January, Tuesday

Time Temperature Precipitation Wind Pressure Humidity
00:00 +14°C° 0 mm 1 mps 628 mmHg 97%
01:00 +13°C° 0 mm 1 mps 628 mmHg 97%
02:00 +13°C° 0 mm 1 mps 627 mmHg 98%
03:00 +13°C° 0 mm 1 mps 627 mmHg 98%
04:00 +13°C° 0 mm 1 mps 627 mmHg 98%
05:00 +13°C° 0 mm 1 mps 627 mmHg 97%
06:00 +13°C° 0 mm 1 mps 628 mmHg 98%
07:00 +14°C° 0 mm 1 mps 628 mmHg 95%
08:00 +15°C° 0 mm 1 mps 629 mmHg 92%
09:00 +16°C° 0 mm 1 mps 630 mmHg 90%
10:00 +17°C° 0 mm 2 mps 630 mmHg 83%
11:00 +19°C° 0 mm 2 mps 630 mmHg 75%
12:00 +20°C° 0 mm 2 mps 631 mmHg 68%
13:00 +20°C° 0.1 mm 2 mps 630 mmHg 68%
14:00 +21°C° 0.1 mm 2 mps 630 mmHg 68%
15:00 +21°C° 0.1 mm 2 mps 629 mmHg 68%
16:00 +19°C° 0.1 mm 2 mps 629 mmHg 77%
17:00 +18°C° 0.1 mm 1 mps 628 mmHg 87%
18:00 +16°C° 0.1 mm 1 mps 628 mmHg 97%
19:00 +15°C° 0.2 mm 1 mps 628 mmHg 98%
20:00 +15°C° 0.2 mm 1 mps 629 mmHg 98%
21:00 +15°C° 0.2 mm 1 mps 629 mmHg 99%
22:00 +15°C° 0.1 mm 1 mps 629 mmHg 99%
23:00 +15°C° 0.1 mm 1 mps 629 mmHg 99%

Tomorrow, 20 January, Wednesday

Time Temperature Precipitation Wind Pressure Humidity
00:00 +14°C° 0.1 mm 1 mps 629 mmHg 99%
01:00 +14°C° 0.1 mm 1 mps 628 mmHg 99%
02:00 +13°C° 0.1 mm 1 mps 628 mmHg 99%
03:00 +13°C° 0.1 mm 1 mps 628 mmHg 99%
04:00 +13°C° 0 mm 1 mps 628 mmHg 99%
05:00 +12°C° 0 mm 1 mps 628 mmHg 99%
06:00 +12°C° 0 mm 1 mps 628 mmHg 98%
07:00 +13°C° 0 mm 1 mps 629 mmHg 97%
08:00 +14°C° 0 mm 1 mps 629 mmHg 96%
09:00 +14°C° 0 mm 2 mps 630 mmHg 95%
10:00 +16°C° 0 mm 2 mps 630 mmHg 85%
11:00 +18°C° 0 mm 2 mps 630 mmHg 75%
12:00 +20°C° 0 mm 3 mps 631 mmHg 65%
13:00 +20°C° 0.1 mm 3 mps 630 mmHg 62%
14:00 +21°C° 0.1 mm 3 mps 630 mmHg 58%
15:00 +22°C° 0.1 mm 3 mps 629 mmHg 55%
16:00 +19°C° 0.1 mm 2 mps 629 mmHg 67%
17:00 +18°C° 0.1 mm 1 mps 628 mmHg 79%
18:00 +15°C° 0.1 mm 1 mps 627 mmHg 92%
19:00 +14°C° 0.1 mm 1 mps 628 mmHg 94%
20:00 +13°C° 0.1 mm 0 mps 628 mmHg 96%
21:00 +12°C° 0.1 mm 0 mps 628 mmHg 98%
22:00 +12°C° 0 mm 0 mps 628 mmHg 98%
23:00 +12°C° 0 mm 0 mps 628 mmHg 98%

Day after tomorrow, 21 January, Thursday

Time Temperature Precipitation Wind Pressure Humidity
00:00 +12°C° 0 mm 0 mps 629 mmHg 97%
01:00 +12°C° 0 mm 0 mps 628 mmHg 98%
02:00 +12°C° 0 mm 0 mps 628 mmHg 98%
03:00 +12°C° 0 mm 0 mps 628 mmHg 98%
04:00 +12°C° 0 mm 0 mps 628 mmHg 98%
05:00 +12°C° 0 mm 0 mps 628 mmHg 98%
06:00 +13°C° 0 mm 0 mps 628 mmHg 97%
07:00 +13°C° 0 mm 0 mps 629 mmHg 97%
08:00 +13°C° 0 mm 0 mps 629 mmHg 96%
09:00 +14°C° 0 mm 0 mps 630 mmHg 96%
10:00 +18°C° 0 mm 1 mps 630 mmHg 85%
11:00 +20°C° 0 mm 1 mps 630 mmHg 74%
12:00 +21°C° 0 mm 2 mps 630 mmHg 64%
13:00 +21°C° 0 mm 2 mps 630 mmHg 62%
14:00 +21°C° 0 mm 2 mps 629 mmHg 61%
15:00 +23°C° 0 mm 2 mps 629 mmHg 59%
16:00 +21°C° 0.2 mm 1 mps 628 mmHg 72%
17:00 +19°C° 0.2 mm 1 mps 627 mmHg 85%
18:00 +15°C° 0.2 mm 1 mps 627 mmHg 98%
19:00 +15°C° 0 mm 1 mps 627 mmHg 98%
20:00 +14°C° 0 mm 1 mps 627 mmHg 98%
21:00 +14°C° 0 mm 1 mps 627 mmHg 99%
22:00 +13°C° 0 mm 1 mps 627 mmHg 98%
23:00 +13°C° 0 mm 1 mps 627 mmHg 98%

22 January, Friday

Time Temperature Precipitation Wind Pressure Humidity
00:00 +13°C° 0 mm 1 mps 626 mmHg 98%
01:00 +13°C° 0 mm 1 mps 626 mmHg 97%
02:00 +13°C° 0 mm 1 mps 626 mmHg 97%
03:00 +13°C° 0 mm 1 mps 625 mmHg 97%
04:00 +12°C° 0 mm 1 mps 625 mmHg 95%
05:00 +12°C° 0 mm 1 mps 625 mmHg 94%
06:00 +12°C° 0 mm 1 mps 625 mmHg 92%
07:00 +14°C° 0 mm 1 mps 626 mmHg 86%
08:00 +16°C° 0 mm 1 mps 627 mmHg 80%
09:00 +19°C° 0 mm 1 mps 629 mmHg 74%
10:00 +21°C° 0 mm 1 mps 629 mmHg 64%
11:00 +23°C° 0 mm 1 mps 630 mmHg 54%
12:00 +26°C° 0 mm 1 mps 630 mmHg 44%
13:00 +26°C° 0 mm 2 mps 629 mmHg 45%
14:00 +26°C° 0 mm 2 mps 629 mmHg 45%
15:00 +26°C° 0 mm 2 mps 628 mmHg 45%
16:00 +23°C° 0 mm 1 mps 628 mmHg 57%
17:00 +20°C° 0 mm 1 mps 627 mmHg 70%
18:00 +16°C° 0 mm 0 mps 626 mmHg 82%
19:00 +15°C° 0 mm 0 mps 626 mmHg 85%
20:00 +15°C° 0 mm 1 mps 626 mmHg 88%
21:00 +14°C° 0 mm 1 mps 626 mmHg 91%
22:00 +13°C° 0 mm 1 mps 626 mmHg 92%
23:00 +13°C° 0 mm 1 mps 626 mmHg 92%

23 January, Saturday

Time Temperature Precipitation Wind Pressure Humidity
00:00 +12°C° 0 mm 1 mps 625 mmHg 92%
01:00 +12°C° 0 mm 1 mps 625 mmHg 91%
02:00 +12°C° 0 mm 1 mps 625 mmHg 91%
03:00 +12°C° 0 mm 1 mps 625 mmHg 90%
04:00 +12°C° 0 mm 1 mps 625 mmHg 88%
05:00 +11°C° 0 mm 1 mps 625 mmHg 86%
06:00 +11°C° 0 mm 1 mps 626 mmHg 84%
07:00 +13°C° 0 mm 1 mps 627 mmHg 75%
08:00 +16°C° 0 mm 1 mps 628 mmHg 67%
09:00 +19°C° 0 mm 1 mps 630 mmHg 58%
10:00 +21°C° 0 mm 1 mps 630 mmHg 52%
11:00 +23°C° 0 mm 1 mps 630 mmHg 46%
12:00 +24°C° 0 mm 2 mps 630 mmHg 39%
13:00 +25°C° 0 mm 2 mps 630 mmHg 40%
14:00 +25°C° 0 mm 2 mps 629 mmHg 40%
15:00 +25°C° 0 mm 2 mps 629 mmHg 41%
16:00 +21°C° 0 mm 2 mps 628 mmHg 56%
17:00 +20°C° 0 mm 1 mps 627 mmHg 71%
18:00 +16°C° 0 mm 1 mps 626 mmHg 87%
19:00 +15°C° 0 mm 1 mps 626 mmHg 89%
20:00 +14°C° 0 mm 1 mps 627 mmHg 92%
21:00 +14°C° 0 mm 1 mps 627 mmHg 94%
22:00 +13°C° 0 mm 1 mps 627 mmHg 94%
23:00 +13°C° 0 mm 1 mps 627 mmHg 94%

24 January, Sunday

Time Temperature Precipitation Wind Pressure Humidity
00:00 +13°C° 0 mm 1 mps 626 mmHg 94%
01:00 +13°C° 0 mm 1 mps 626 mmHg 95%
02:00 +13°C° 0 mm 1 mps 626 mmHg 96%
03:00 +12°C° 0 mm 1 mps 626 mmHg 97%
04:00 +12°C° 0 mm 1 mps 626 mmHg 97%
05:00 +12°C° 0 mm 1 mps 626 mmHg 96%
06:00 +11°C° 0 mm 1 mps 625 mmHg 96%
07:00 +13°C° 0 mm 1 mps 627 mmHg 86%
08:00 +15°C° 0 mm 1 mps 628 mmHg 76%
09:00 +18°C° 0 mm 1 mps 629 mmHg 65%
10:00 +20°C° 0 mm 1 mps 629 mmHg 58%
11:00 +21°C° 0 mm 2 mps 629 mmHg 51%
12:00 +24°C° 0 mm 2 mps 629 mmHg 43%
13:00 +24°C° 0 mm 2 mps 629 mmHg 42%
14:00 +25°C° 0 mm 2 mps 628 mmHg 41%
15:00 +25°C° 0 mm 2 mps 628 mmHg 41%
16:00 +21°C° 0 mm 2 mps 627 mmHg 52%
17:00 +20°C° 0 mm 1 mps 626 mmHg 63%
18:00 +16°C° 0 mm 1 mps 625 mmHg 74%
19:00 +15°C° 0 mm 1 mps 625 mmHg 80%
20:00 +14°C° 0 mm 1 mps 625 mmHg 85%
21:00 +13°C° 0 mm 1 mps 626 mmHg 90%
22:00 +13°C° 0 mm 1 mps 625 mmHg 90%
23:00 +13°C° 0 mm 1 mps 625 mmHg 90%
Show more